Weather Roundup
Issued by NWS Chicago, IL

Home | Current Version | Previous Version | Graphics & Text | Print | Product List | Glossary On
Versions: 1 2 3 4 5 6 7 8 9 10 11 12 13 14 15 16 17 18 19 20 21 22 23 24 25 26 27 28 29 30 31 32 33 34 35 36 37 38 39 40 41 42 43 44 45 46 47 48 49 50
000
NZUS59 KLOT 301000
HRRLOT

CHICAGO AREA WEATHER ROUNDUP
NATIONAL WEATHER SERVICE CHICAGO/ROMEOVILLE IL
400 AM CST FRI JAN 30 2015

NOTE: "FAIR" INDICATES FEW OR NO CLOUDS BELOW 12,000 FEET WITH NO
SIGNIFICANT WEATHER AND/OR OBSTRUCTIONS TO VISIBILITY.

* THESE STATIONS ARE NOT UNDER NWS QUALITY CONTROL. THEY ALSO MAY NOT
  REPORT WEATHER SUCH AS PRECIPITATION OR FOG.

ILZ005-006-012>014-019>023-301100-
NORTHEAST ILLINOIS

CITY           SKY/WX    TMP DP  RH WIND       PRES   REMARKS
OHARE          CLEAR     23   9  55 N14       30.41R WCI  11
MIDWAY         PTCLDY    26  10  50 N12       30.42R WCI  16
AURORA         PTCLDY    20  14  77 NW6       30.42R WCI  12
WAUKEGAN       CLEAR     20  10  65 VRB7      30.41R WCI  11
DUPAGE AIRPORT PTCLDY    22  10  60 N9        30.41R WCI  12
WHEELING       CLEAR     22   8  55 NW6       30.43R WCI  14
NORTHERLY IS     N/A     26   9  48 NW16        N/A  WCI  14
$$

WIZ051-052-058>065-066-070>072-301100-
SOUTHEAST WISCONSIN

CITY           SKY/WX    TMP DP  RH WIND       PRES   REMARKS
MILWAUKEE      PTCLDY    21   8  57 NW12G22   30.42R WCI   9
KENOSHA*       CLEAR     20  10  65 NW12      30.42R WCI   8
RACINE*        CLEAR     22  10  60 NW14      30.43R WCI   9
$$

INZ001>003-010>013-019-020-301100-
NORTHWEST INDIANA

CITY           SKY/WX    TMP DP  RH WIND       PRES   REMARKS
GARY*          NOT AVBL
MICHIGAN CITY* NOT AVBL
RENSSELAER*    NOT AVBL
$$

LMZ740>746-301100-
SOUTHERN LAKE MICHIGAN

STATION/POSITION TIME  SKY/WX   TEMP WIND        PRES    VSBY
                                AIR  DIR/SP/G
                 (UTC)          (F)  (DEG/KT/KT) (MB)    (MI)
HARRISON CRIB    0900            27  340/ 24/ 30   N/A
BURNHAM HARBOR   1000            26  350/ 11/ 19   N/A
CALUMET HARBOR   0900            26  340/ 15/ 24   N/A
BURNS HARBOR     NOT AVBL
MICHIGAN CITY    0900            28  320/ 25/ 27   N/A
$$

ABBREVIATIONS USED IN REMARKS
   TC - TEMPERATURE IN CELSIUS
  WCI - WIND CHILL INDEX
   HX - HEAT INDEX
  VSB - VISIBILITY
$$



USA.gov is the U.S. government's official web portal to all federal, state and local government web resources and services.